Палос Вердес

США     33°48′18″N   118°23′34″W
темп.,
°C
ветер,
м/с
пор.,
м/с
влажн.,
%
обл.,
%
осадки,
мм/ч
давл.,
гПа
погр.,
м
19 апреля, пн
пн1923:00+17з68770 0.0 101682
02:00+17зсз34730 0.0 101538
05:00+18ююз01680 0.0 101511
08:00+17ююз22770 0.0 101615
11:00+18ю22711 0.0 101627
14:00+16зюз55760 0.0 1015142
17:00+17зюз45760 0.0 1013149
20:00+16зюз45810 0.0 1013113
20 апреля, вт
вт2023:00+16ю33800 0.0 1014190
02:00+15юв34800 0.0 1013208
05:00+16в46830 0.0 1012272
08:00+15вюв67820 0.0 1013368
11:00+15юв78810 0.0 1013429
14:00+15юв55806 0.0 1012415
17:00+16ююв2282100 0.0 1010384
20:00+16вюв11820 0.0 1011205
21 апреля, ср
ср2123:00+15ююв338287 0.0 1011538
02:00+15юв3482100 0.3 1010452
05:00+14з2385100 0.8 1010364
08:00+14юз1382100 0.4 1012439
11:00+14ююв338058 0.4 1013504
14:00+15юз547950 0.1 1012614
17:00+14зюз337789 0.1 1012681
20:00+14юз337988 0.1 1012462
22 апреля, чт
чт2223:00+14юз437899 0.2 1013380
02:00+14ю237671 0.1 1012404
05:00+14зюз2177100 0.1 1012379
08:00+14зюз1177100 0.0 1014208
11:00+15ююз337341 0.1 1014330
14:00+15зюз55781 0.0 1014450
17:00+14з65800 0.0 1013428
20:00+15з65800 0.0 1013441
23 апреля, пт
пт2323:00+14з55800 0.0 1014413
02:00+14зюз337913 0.0 1014498
05:00+14ююз227985 0.0 1015581
08:00+14ю2277100 0.1 1016585
11:00+14ююз3278100 0.2 1017401
14:00+14юз4377100 0.0 1016518
17:00+14юз448054 0.0 1015587
20:00+14з347987 0.0 1016661